Anderson, SC

7:13 PM EDT on April 25, 2017 (GMT -0400)
Anderson Regional

Weather History for KAND - January, 2013

Change the Weather History Date:

Tuesday, January 1, 2013

  Actual Average Record
Temperature  
Mean Temperature 46 °F -  
Max Temperature 48 °F 54 °F 77 °F (1952)
Min Temperature 44 °F 37 °F 12 °F (1984)
Degree Days  
Heating Degree Days 19    
Moisture  
Dew Point 45 °F    
Average Humidity 93    
Maximum Humidity 100    
Minimum Humidity 58    
Precipitation  
Precipitation 0.52 in - - ()
Sea Level Pressure  
Sea Level Pressure 30.03 in    
Wind  
Wind Speed 4 mph (SSW)    
Max Wind Speed 7 mph    
Max Gust Speed -    
Visibility 5 miles    
Events Rain    
Averages and records for this station are not official NWS values.
T = Trace of Precipitation, MM = Missing Value Source: NWS Daily Summary

Daily Weather History Graph

Daily Weather History Graph

Search for Another Location

Airport or City:

Trip Planner

Search our weather history database for the weather conditions in past years. The results will help you decide how hot, cold, wet, or windy it might be!

Date:

Astronomy

Jan. 01, 2013 Rise Set
Actual Time 7:37 AM EST 5:31 PM EST
Civil Twilight 7:09 AM EST 5:59 PM EST
Nautical Twilight 6:38 AM EST 6:30 PM EST
Astronomical Twilight 6:07 AM EST 7:01 PM EST
Moon 9:49 PM EST (1/1) 10:00 AM EST (1/1)
Length of Visible Light 10h 49m
Length of Day
9h 54m
Waning Gibbous, 83% of the Moon is Illuminated
Jan 1
Waning Gibbous
Jan 4
Last Quarter
Jan 11
New
Jan 18
First Quarter
Jan 26
Full

Hourly Weather History & Observations

Time (EST) Temp. Windchill Dew Point Humidity Pressure Visibility Wind Dir Wind Speed Gust Speed Precip Events Conditions
1:56 AM 45.0 °F 41.2 °F 33.1 °F 63% 30.09 in 10.0 mi SSW 6.9 mph - N/A   Partly Cloudy
2:56 AM 44.1 °F 41.5 °F 34.0 °F 68% 30.10 in 10.0 mi SSW 4.6 mph - N/A   Mostly Cloudy
3:56 AM 45.0 °F 41.2 °F 34.0 °F 65% 30.09 in 10.0 mi SW 6.9 mph - N/A   Partly Cloudy
5:32 AM 46.4 °F 44.3 °F 33.8 °F 62% 30.08 in 10.0 mi WSW 4.6 mph - N/A   Overcast
5:56 AM 48.0 °F - 34.0 °F 58% 30.08 in 10.0 mi WSW 5.8 mph - N/A   Overcast
7:56 AM 48.0 °F - 35.1 °F 61% 30.10 in 10.0 mi Calm Calm - N/A   Overcast
8:56 AM 48.0 °F - 37.0 °F 66% 30.10 in 6.0 mi Calm Calm - 0.01 in Rain Light Rain
9:17 AM 44.6 °F - 39.2 °F 81% 30.10 in 2.0 mi Calm Calm - 0.03 in Rain Rain
9:29 AM 44.6 °F - 42.8 °F 93% 30.10 in 3.0 mi Calm Calm - 0.05 in Rain Light Rain
9:48 AM 44.6 °F 42.2 °F 42.8 °F 93% 30.10 in 2.5 mi South 4.6 mph - 0.07 in Rain Light Rain
9:56 AM 44.1 °F 41.5 °F 43.0 °F 96% 30.11 in 2.0 mi South 4.6 mph - 0.08 in Rain Rain
10:29 AM 44.6 °F 43.1 °F 44.6 °F 100% 30.11 in 3.0 mi South 3.5 mph - 0.03 in Rain Light Rain
11:08 AM 46.4 °F 43.5 °F 44.6 °F 93% 30.10 in 3.0 mi South 5.8 mph - 0.00 in Rain Light Rain
11:11 AM 46.4 °F 43.5 °F 46.4 °F 100% 30.10 in 2.5 mi South 5.8 mph - 0.01 in Rain Light Rain
11:26 AM 46.4 °F 43.5 °F 46.4 °F 100% 30.09 in 2.5 mi SSW 5.8 mph - 0.01 in Rain Light Rain
11:36 AM 46.4 °F 45.2 °F 46.4 °F 100% 30.08 in 3.0 mi SSW 3.5 mph - 0.02 in Rain Light Rain
11:46 AM 46.4 °F 44.3 °F 46.4 °F 100% 30.07 in 2.5 mi SSW 4.6 mph - 0.02 in Rain Light Rain
11:54 AM 46.4 °F 42.9 °F 46.4 °F 100% 30.07 in 3.0 mi SSW 6.9 mph - 0.02 in Rain Light Rain
11:56 AM 46.9 °F - 46.9 °F 100% 30.07 in 2.5 mi SSW 6.9 mph - 0.02 in Rain Light Rain
12:51 PM 48.2 °F - 48.2 °F 100% 30.04 in 3.0 mi SSW 4.6 mph - 0.03 in Rain Light Rain
12:56 PM 48.0 °F - 48.0 °F 100% 30.04 in 2.5 mi SW 4.6 mph - 0.04 in Rain Light Rain
1:19 PM 48.2 °F - 48.2 °F 100% 30.02 in 3.0 mi SW 3.5 mph - 0.01 in Rain Light Rain
1:56 PM 48.9 °F - 48.9 °F 100% 30.01 in 5.0 mi Calm Calm - 0.03 in Rain Light Rain
2:12 PM 48.2 °F - 48.2 °F 100% 30.00 in 8.0 mi SSE 3.5 mph - 0.00 in Rain Light Rain
2:38 PM 48.2 °F - 48.2 °F 100% 30.00 in 9.0 mi SSW 3.5 mph - 0.01 in Rain Light Rain
3:05 PM 48.2 °F - 48.2 °F 100% 30.00 in 5.0 mi SW 3.5 mph - 0.00 in Rain Light Rain
3:48 PM 48.2 °F - 48.2 °F 100% 30.01 in 6.0 mi South 4.6 mph - 0.02 in Rain Light Rain
4:56 PM 48.9 °F - 48.9 °F 100% 30.01 in 7.0 mi Calm Calm - 0.03 in Rain Light Rain
5:40 PM 48.2 °F - 48.2 °F 100% 29.98 in 7.0 mi Calm Calm - 0.03 in Rain Light Rain
5:56 PM 48.0 °F - 48.0 °F 100% 29.98 in 6.0 mi South 3.5 mph - 0.03 in Rain Light Rain
6:13 PM 48.2 °F - 48.2 °F 100% 29.98 in 4.0 mi Calm Calm - 0.02 in Rain Light Rain
6:39 PM 48.2 °F - 48.2 °F 100% 29.97 in 5.0 mi Calm Calm - 0.03 in Rain Light Rain
6:56 PM 48.9 °F - 48.0 °F 97% 29.99 in 7.0 mi NW 3.5 mph - 0.03 in Rain Light Rain
7:41 PM 48.2 °F - 48.2 °F 100% 29.98 in 5.0 mi Calm Calm - 0.04 in Rain Light Rain
7:48 PM 48.2 °F - 48.2 °F 100% 29.97 in 5.0 mi East 4.6 mph - 0.04 in Rain Light Rain
7:56 PM 48.9 °F - 48.9 °F 100% 29.97 in 4.0 mi Calm Calm - 0.04 in Rain Light Rain
8:45 PM 48.2 °F - 48.2 °F 100% 29.97 in 4.0 mi Calm Calm - 0.04 in Rain Rain
8:56 PM 48.9 °F - 48.9 °F 100% 29.97 in 5.0 mi Calm Calm - 0.05 in Rain Light Rain
9:56 PM 48.9 °F - 48.9 °F 100% 29.96 in 5.0 mi Calm Calm - 0.04 in Rain Light Rain
10:53 PM 48.2 °F - 48.2 °F 100% 29.95 in 4.0 mi NNE 3.5 mph - 0.06 in Rain Rain
10:56 PM 48.9 °F - 48.9 °F 100% 29.96 in 4.0 mi Calm Calm - 0.06 in Rain Rain
11:56 PM 48.9 °F - 48.9 °F 100% 29.95 in 7.0 mi North 4.6 mph - 0.06 in Rain Light Rain